* Astronomy

Members Login
Username 
 
Password 
    Remember Me  
Post Info TOPIC: Asteroid 2015 YU7


L

Posts: 131433
Date:
Asteroid 2015 YU7
Permalink  
 


Orbital elements:
2015 YU7                                            PHA, Earth MOID = 0.0058 AU
Epoch 2016 Jan. 13.0 TT = JDT 2457400.5                 MPC
M 139.58356              (2000.0)            P               Q
n   1.32842805     Peri.   44.20631     +0.46969716     +0.87466370
a   0.8195536      Node   254.14766     -0.84058716     +0.40162097
e   0.4111362      Incl.    7.15296     -0.26981068     +0.27141115
P   0.74           H   21.2           G   0.15           U   8

MPEC 2015 - Y81



__________________
Page 1 of 1  sorted by
 
Quick Reply

Please log in to post quick replies.



Create your own FREE Forum
Report Abuse
Powered by ActiveBoard